2021-022H

Last updated on Thu Apr 22 2021 00:02:03 GMT+0000 (Coordinated Universal Time)

1 47939U 21022H 21111.48765139 .00002065 00000-0 14265-3 0 9992 2 47939 97.5611 14.8218 0019542 131.4667 345.0738 15.06708949 4504
UTC large
Height (km)
Speed (km/s)
/
Latitude / Longitude
Inclination (degrees)
Orbital Period (minutes)
Azimuth
Elevation
Range (km)
Doppler Factor

Next 0 passes for location: London (51.5072 / 0.1276)

Sorry there are no passes over London.